• In Hungary
  • List of Countries
  • For 7 days
  • Water Temperature
  • Satellite Maps
  • Weather Map
  • News
  • Weather Widgets
  • user-avatar
    Login

    Hourly Weather Cadiz

    Today, 21 September, Friday

    Time Temperature Precipitation Wind Pressure Humidity
    00:00 +26°C° 0 mm 2 mps 762 mmHg 73%
    01:00 +26°C° 0 mm 2 mps 762 mmHg 72%
    02:00 +25°C° 0 mm 2 mps 762 mmHg 72%
    03:00 +25°C° 0 mm 2 mps 762 mmHg 72%
    04:00 +25°C° 0 mm 2 mps 762 mmHg 72%
    05:00 +25°C° 0 mm 2 mps 762 mmHg 72%
    06:00 +24°C° 0 mm 2 mps 762 mmHg 72%
    07:00 +26°C° 0 mm 2 mps 762 mmHg 65%
    08:00 +28°C° 0 mm 2 mps 762 mmHg 58%
    09:00 +30°C° 0 mm 2 mps 762 mmHg 50%
    10:00 +31°C° 0 mm 2 mps 762 mmHg 45%
    11:00 +34°C° 0 mm 2 mps 762 mmHg 39%
    12:00 +36°C° 0 mm 2 mps 762 mmHg 34%
    13:00 +36°C° 0 mm 2 mps 762 mmHg 33%
    14:00 +36°C° 0 mm 3 mps 761 mmHg 32%
    15:00 +36°C° 0 mm 3 mps 761 mmHg 31%
    16:00 +35°C° 0 mm 3 mps 761 mmHg 33%
    17:00 +34°C° 0 mm 3 mps 761 mmHg 36%
    18:00 +33°C° 0 mm 3 mps 761 mmHg 39%
    19:00 +31°C° 0 mm 3 mps 761 mmHg 42%
    20:00 +30°C° 0 mm 2 mps 762 mmHg 46%
    21:00 +28°C° 0 mm 2 mps 762 mmHg 50%
    22:00 +28°C° 0 mm 2 mps 762 mmHg 52%
    23:00 +27°C° 0 mm 2 mps 762 mmHg 53%

    Tomorrow, 22 September, Saturday

    Time Temperature Precipitation Wind Pressure Humidity
    00:00 +27°C° 0 mm 2 mps 762 mmHg 55%
    01:00 +27°C° 0 mm 3 mps 762 mmHg 54%
    02:00 +26°C° 0 mm 3 mps 762 mmHg 54%
    03:00 +26°C° 0 mm 3 mps 762 mmHg 54%
    04:00 +26°C° 0 mm 3 mps 762 mmHg 52%
    05:00 +26°C° 0 mm 3 mps 762 mmHg 51%
    06:00 +25°C° 0 mm 3 mps 762 mmHg 50%
    07:00 +27°C° 0 mm 4 mps 763 mmHg 44%
    08:00 +29°C° 0 mm 4 mps 763 mmHg 38%
    09:00 +32°C° 0 mm 5 mps 763 mmHg 32%
    10:00 +34°C° 0 mm 5 mps 763 mmHg 29%
    11:00 +36°C° 0 mm 5 mps 763 mmHg 25%
    12:00 +37°C° 0 mm 5 mps 763 mmHg 22%
    13:00 +38°C° 0 mm 6 mps 763 mmHg 21%
    14:00 +39°C° 0 mm 6 mps 763 mmHg 20%
    15:00 +39°C° 0 mm 7 mps 762 mmHg 19%
    16:00 +36°C° 0 mm 7 mps 762 mmHg 21%
    17:00 +35°C° 0 mm 7 mps 762 mmHg 22%
    18:00 +34°C° 0 mm 7 mps 762 mmHg 24%
    19:00 +32°C° 0 mm 6 mps 763 mmHg 28%
    20:00 +30°C° 0 mm 6 mps 763 mmHg 31%
    21:00 +28°C° 0 mm 6 mps 764 mmHg 35%
    22:00 +28°C° 0 mm 6 mps 764 mmHg 35%
    23:00 +28°C° 0 mm 6 mps 763 mmHg 36%

    Day after tomorrow, 23 September, Sunday

    Time Temperature Precipitation Wind Pressure Humidity
    00:00 +28°C° 0 mm 6 mps 763 mmHg 36%
    01:00 +27°C° 0 mm 6 mps 763 mmHg 38%
    02:00 +27°C° 0 mm 5 mps 763 mmHg 39%
    03:00 +26°C° 0 mm 5 mps 763 mmHg 41%
    04:00 +26°C° 0 mm 5 mps 763 mmHg 42%
    05:00 +26°C° 0 mm 4 mps 763 mmHg 42%
    06:00 +25°C° 0 mm 4 mps 763 mmHg 43%
    07:00 +27°C° 0 mm 4 mps 763 mmHg 38%
    08:00 +29°C° 0 mm 5 mps 763 mmHg 33%
    09:00 +32°C° 0 mm 5 mps 764 mmHg 28%
    10:00 +34°C° 0 mm 5 mps 764 mmHg 25%
    11:00 +36°C° 0 mm 5 mps 763 mmHg 22%
    12:00 +37°C° 0 mm 5 mps 763 mmHg 18%
    13:00 +39°C° 0 mm 5 mps 763 mmHg 18%
    14:00 +39°C° 0 mm 5 mps 763 mmHg 17%
    15:00 +39°C° 0 mm 5 mps 762 mmHg 16%
    16:00 +37°C° 0 mm 5 mps 762 mmHg 20%
    17:00 +35°C° 0 mm 6 mps 762 mmHg 24%
    18:00 +33°C° 0 mm 6 mps 762 mmHg 28%
    19:00 +32°C° 0 mm 6 mps 762 mmHg 32%
    20:00 +29°C° 0 mm 6 mps 763 mmHg 36%
    21:00 +28°C° 0 mm 6 mps 763 mmHg 41%
    22:00 +28°C° 0 mm 5 mps 763 mmHg 41%
    23:00 +27°C° 0 mm 5 mps 763 mmHg 40%

    24 September, Monday

    Time Temperature Precipitation Wind Pressure Humidity
    00:00 +27°C° 0 mm 5 mps 763 mmHg 40%
    01:00 +26°C° 0 mm 4 mps 763 mmHg 40%
    02:00 +26°C° 0 mm 4 mps 763 mmHg 40%
    03:00 +26°C° 0 mm 4 mps 762 mmHg 40%
    04:00 +26°C° 0 mm 4 mps 762 mmHg 40%
    05:00 +25°C° 0 mm 4 mps 762 mmHg 40%
    06:00 +25°C° 0 mm 4 mps 762 mmHg 39%
    07:00 +27°C° 0 mm 4 mps 762 mmHg 35%
    08:00 +29°C° 0 mm 4 mps 763 mmHg 31%
    09:00 +32°C° 0 mm 4 mps 763 mmHg 26%
    10:00 +34°C° 0 mm 4 mps 763 mmHg 24%
    11:00 +36°C° 0 mm 3 mps 763 mmHg 22%
    12:00 +38°C° 0 mm 3 mps 762 mmHg 20%
    13:00 +38°C° 0 mm 4 mps 762 mmHg 20%
    14:00 +38°C° 0 mm 4 mps 761 mmHg 19%
    15:00 +40°C° 0 mm 4 mps 761 mmHg 19%
    16:00 +37°C° 0 mm 4 mps 761 mmHg 22%
    17:00 +36°C° 0 mm 5 mps 761 mmHg 25%
    18:00 +34°C° 0 mm 5 mps 761 mmHg 28%
    19:00 +33°C° 0 mm 5 mps 761 mmHg 31%
    20:00 +30°C° 0 mm 5 mps 761 mmHg 35%
    21:00 +29°C° 0 mm 5 mps 762 mmHg 38%
    22:00 +29°C° 0 mm 5 mps 762 mmHg 39%
    23:00 +28°C° 0 mm 6 mps 762 mmHg 39%

    25 September, Tuesday

    Time Temperature Precipitation Wind Pressure Humidity
    00:00 +28°C° 0 mm 6 mps 762 mmHg 40%
    01:00 +28°C° 0 mm 6 mps 761 mmHg 41%
    02:00 +27°C° 0 mm 6 mps 761 mmHg 41%
    03:00 +27°C° 0 mm 5 mps 761 mmHg 42%
    04:00 +27°C° 0 mm 5 mps 761 mmHg 43%
    05:00 +27°C° 0 mm 5 mps 761 mmHg 44%
    06:00 +26°C° 0 mm 5 mps 761 mmHg 44%
    07:00 +28°C° 0 mm 5 mps 761 mmHg 41%
    08:00 +30°C° 0 mm 6 mps 762 mmHg 37%
    09:00 +32°C° 0 mm 6 mps 762 mmHg 34%
    10:00 +34°C° 0 mm 6 mps 762 mmHg 32%
    11:00 +35°C° 0 mm 7 mps 762 mmHg 30%
    12:00 +36°C° 0 mm 7 mps 762 mmHg 28%
    13:00 +38°C° 0 mm 7 mps 761 mmHg 29%
    14:00 +38°C° 0 mm 8 mps 761 mmHg 30%
    15:00 +38°C° 0 mm 8 mps 761 mmHg 30%
    16:00 +35°C° 0 mm 8 mps 761 mmHg 34%
    17:00 +34°C° 0 mm 9 mps 761 mmHg 38%
    18:00 +33°C° 0 mm 9 mps 761 mmHg 42%
    19:00 +32°C° 0 mm 9 mps 762 mmHg 46%
    20:00 +31°C° 0 mm 10 mps 762 mmHg 51%
    21:00 +29°C° 0 mm 10 mps 763 mmHg 55%
    22:00 +28°C° 0 mm 10 mps 763 mmHg 57%
    23:00 +28°C° 0 mm 10 mps 763 mmHg 59%

    26 September, Wednesday

    Time Temperature Precipitation Wind Pressure Humidity
    00:00 +27°C° 0 mm 11 mps 763 mmHg 62%
    01:00 +27°C° 0 mm 10 mps 763 mmHg 62%
    02:00 +27°C° 0 mm 10 mps 763 mmHg 63%
    03:00 +27°C° 0 mm 9 mps 763 mmHg 64%
    04:00 +26°C° 0 mm 9 mps 763 mmHg 65%
    05:00 +26°C° 0 mm 8 mps 763 mmHg 66%
    06:00 +26°C° 0 mm 8 mps 763 mmHg 66%
    07:00 +27°C° 0 mm 8 mps 763 mmHg 62%
    08:00 +28°C° 0 mm 9 mps 764 mmHg 57%
    09:00 +29°C° 0 mm 9 mps 764 mmHg 53%
    10:00 +32°C° 0 mm 9 mps 764 mmHg 48%
    11:00 +33°C° 0 mm 9 mps 764 mmHg 44%
    12:00 +34°C° 0 mm 9 mps 764 mmHg 39%
    13:00 +35°C° 0 mm 9 mps 763 mmHg 38%
    14:00 +35°C° 0 mm 9 mps 763 mmHg 37%
    15:00 +35°C° 0 mm 9 mps 762 mmHg 36%
    16:00 +34°C° 0 mm 9 mps 762 mmHg 40%
    17:00 +33°C° 0 mm 9 mps 763 mmHg 44%
    18:00 +32°C° 0 mm 9 mps 763 mmHg 48%
    19:00 +31°C° 0 mm 9 mps 763 mmHg 51%
    20:00 +29°C° 0 mm 9 mps 763 mmHg 55%
    21:00 +28°C° 0 mm 9 mps 764 mmHg 58%
    22:00 +27°C° 0 mm 9 mps 764 mmHg 60%
    23:00 +27°C° 0 mm 9 mps 764 mmHg 62%
    Show more